Regional Weather Roundup
Issued by NWS

Current Version | Previous Version | Text Only | Print | Product List | Glossary On
Versions: 1 2 3 4 5 6 7 8 9 10 11 12 13 14 15 16 17 18 19 20 21 22 23 24 25 26 27 28 29 30 31 32 33 34 35 36 37 38 39 40 41 42 43 44 45 46 47 48 49 50
000
ASUS44 KOUN 300810
RWROK

WEATHER ROUNDUP FOR OKLAHOMA
NATIONAL WEATHER SERVICE NORMAN OK
300 AM CDT SAT MAY 30 2015

NOTE: "FAIR" INDICATES FEW OR NO CLOUDS BELOW 12,000 FEET WITH NO
      SIGNIFICANT WEATHER AND/OR OBSTRUCTIONS TO VISIBILITY.

OKZ001>007-009>012-014-015-017-300900-
NORTHWEST OKLAHOMA AND THE PANHANDLE

CITY           SKY/WX    TMP DP  RH WIND       PRES   REMARKS
GAGE           CLOUDY    59  54  83 N23G30    30.10F
GUYMON         CLOUDY    57  51  80 N16       30.21F
ENID/WOODRING  PTCLDY    63  59  88 N16       30.02S
$$

OKZ016-021>023-033>039-044-045-300900-
SOUTHWEST OKLAHOMA

CITY           SKY/WX    TMP DP  RH WIND       PRES   REMARKS
LAWTON/REGL    MOCLDY    68  66  93 CALM      30.00S
LAWTON/FT SILL CLOUDY    68  67  97 CALM      29.99S
FREDERICK      MOCLDY    68  66  93 N7        29.99R
CLINTON        CLOUDY    65  60  84 N13       30.06R
HOBART         MOCLDY    66  63  90 E3        30.03R
ALTUS AFB      CLOUDY    66  66 100 N3        30.01R
$$

OKZ018>020-024>031-300900-
CENTRAL OKLAHOMA

CITY           SKY/WX    TMP DP  RH WIND       PRES   REMARKS
OKLAHOMA CITY  PTCLDY    66  63  90 CALM      29.99F
OKC/WILEY POST CLEAR     66  63  90 CALM      29.99F
OKC/TINKER AFB CLEAR     66  65  96 CALM      29.98F
STILLWATER     PTCLDY    61  61 100 N3        29.99F FOG
GUTHRIE        CLEAR     64  63  96 CALM      29.99F FOG
$$

OKZ008-013-054>072-300900-
NORTHEAST OKLAHOMA

CITY           SKY/WX    TMP DP  RH WIND       PRES   REMARKS
TULSA          PTCLDY    63  63 100 CALM      29.97S
TULSA/JONES    PTCLDY    63  62  97 CALM      29.98F FOG
PONCA CITY     MOCLDY    67  63  87 NW13G20   30.02R
BARTLESVILLE   MOCLDY    60  60 100 CALM      30.00S FOG
MUSKOGEE       PTCLDY    63  61  93 W5        29.98F
$$

OKZ032-040>043-046>053-073>077-300900-
SOUTH CENTRAL/SOUTHEAST OKLAHOMA

CITY           SKY/WX    TMP DP  RH WIND       PRES   REMARKS
ARDMORE/DWNTWN CLEAR     64  63  94 CALM      29.99S
MCALESTER      PTCLDY    62  61  96 MISG      29.98F
$$



USA.gov is the U.S. government's official web portal to all federal, state and local government web resources and services.